Weather History for PAGS - June, 2013

Change the Weather History Date:

Saturday, June 15, 2013

  Actual Average Record
Temperature  
Mean Temperature 63 °F -  
Max Temperature 80 °F 60 °F 80 °F (2013)
Min Temperature 46 °F 44 °F 36 °F (1985)
Degree Days  
Heating Degree Days 2    
Growing Degree Days 13 (Base 50)    
Moisture  
Dew Point 45 °F    
Average Humidity 64    
Maximum Humidity 87    
Minimum Humidity 26    
Precipitation  
Precipitation 0.00 in - - ()
Sea Level Pressure  
Sea Level Pressure 30.15 in    
Wind  
Wind Speed 1 mph (WSW)    
Max Wind Speed 13 mph    
Max Gust Speed 17 mph    
Visibility 10 miles    
Events      
Averages and records for this station are not official NWS values.
T = Trace of Precipitation, MM = Missing Value Source: NWS Daily Summary

Daily Weather History Graph

Daily Weather History Graph

Search for Another Location

Airport or City:

Trip Planner

Search our weather history database for the weather conditions in past years. The results will help you decide how hot, cold, wet, or windy it might be!

Date:

Astronomy

Jun. 15, 2013 Rise Set
Actual Time 3:55 AM AKDT 10:11 PM AKDT
Civil Twilight 2:36 AM AKDT 11:31 PM AKDT
Nautical Twilight Sun does not rise Sun does not rise
Astronomical Twilight Sun does not rise Sun does not rise
Moon 12:09 PM AKDT (6/15) 12:25 AM AKDT (6/15)
Length of Visible Light 20h 54m
Length of Day
18h 16m
Waxing Crescent, 41% of the Moon is Illuminated
Jun 15
Waxing Crescent
Jun 16
First Quarter
Jun 23
Full
Jun 29
Last Quarter
Jul 7
New

Hourly Weather History & Observations

Time (AKDT) Temp. Dew Point Humidity Pressure Visibility Wind Dir Wind Speed Gust Speed Precip Events Conditions
12:16 AM 51.8 °F 44.6 °F 76% 30.17 in 10.0 mi Calm Calm - N/A   Scattered Clouds
12:36 AM 51.8 °F 44.6 °F 76% 30.17 in 10.0 mi Calm Calm - N/A   Scattered Clouds
12:56 AM 50.0 °F 44.6 °F 82% 30.17 in 10.0 mi Calm Calm - N/A   Partly Cloudy
1:16 AM 50.0 °F 44.6 °F 82% 30.17 in 10.0 mi Calm Calm - N/A   Clear
1:36 AM 50.0 °F 44.6 °F 82% 30.17 in 10.0 mi Calm Calm - N/A   Scattered Clouds
1:56 AM 50.0 °F 44.6 °F 82% 30.17 in 10.0 mi Calm Calm - N/A   Overcast
2:16 AM 48.2 °F 44.6 °F 87% 30.17 in 10.0 mi Calm Calm - N/A   Mostly Cloudy
2:36 AM 48.2 °F 44.6 °F 87% 30.18 in 10.0 mi Calm Calm - N/A   Clear
2:56 AM 48.2 °F 44.6 °F 87% 30.18 in 10.0 mi Calm Calm - N/A   Clear
3:16 AM 46.4 °F 42.8 °F 87% 30.17 in 10.0 mi Calm Calm - N/A   Clear
3:36 AM 46.4 °F 42.8 °F 87% 30.17 in 10.0 mi Calm Calm - N/A   Clear
3:56 AM 46.4 °F 42.8 °F 87% 30.18 in 10.0 mi Calm Calm - N/A   Clear
4:16 AM 46.4 °F 42.8 °F 87% 30.18 in 10.0 mi Calm Calm - N/A   Clear
4:36 AM 46.4 °F 42.8 °F 87% 30.17 in 10.0 mi Calm Calm - N/A   Clear
4:56 AM 46.4 °F 42.8 °F 87% 30.17 in 10.0 mi Calm Calm - N/A   Clear
5:16 AM 46.4 °F 42.8 °F 87% 30.17 in 10.0 mi Calm Calm - N/A   Clear
5:36 AM 48.2 °F 44.6 °F 87% 30.17 in 10.0 mi Calm Calm - N/A   Partly Cloudy
5:56 AM 48.2 °F 44.6 °F 87% 30.17 in 10.0 mi Calm Calm - N/A   Clear
6:16 AM 51.8 °F 46.4 °F 82% 30.17 in 10.0 mi Calm Calm - N/A   Clear
6:36 AM 53.6 °F 46.4 °F 77% 30.17 in 10.0 mi WSW 3.5 mph - N/A   Clear
6:56 AM 53.6 °F 46.4 °F 77% 30.17 in 10.0 mi Calm Calm - N/A   Clear
7:16 AM 53.6 °F 46.4 °F 77% 30.17 in 10.0 mi Calm Calm - N/A   Clear
7:36 AM 55.4 °F 46.4 °F 72% 30.17 in 10.0 mi Calm Calm - N/A   Clear
7:56 AM 55.4 °F 46.4 °F 72% 30.17 in 10.0 mi Calm Calm - N/A   Clear
8:56 AM 60.8 °F 48.2 °F 63% 30.17 in 10.0 mi Calm Calm - N/A   Clear
9:36 AM 62.6 °F 44.6 °F 52% 30.16 in 10.0 mi SE 4.6 mph - N/A   Clear
9:56 AM 62.6 °F 46.4 °F 55% 30.16 in 10.0 mi Calm Calm - N/A   Clear
10:36 AM 68.0 °F 46.4 °F 46% 30.15 in 10.0 mi Calm Calm - N/A   Clear
10:56 AM 68.0 °F 48.2 °F 49% 30.14 in 10.0 mi Calm Calm - N/A   Clear
11:16 AM 69.8 °F 48.2 °F 46% 30.14 in 10.0 mi South 5.8 mph - N/A   Clear
11:36 AM 69.8 °F 48.2 °F 46% 30.14 in 10.0 mi South 3.5 mph - N/A   Clear
11:56 AM 69.8 °F 48.2 °F 46% 30.14 in 10.0 mi South 4.6 mph - N/A   Clear
12:16 PM 71.6 °F 48.2 °F 43% 30.13 in 10.0 mi South 4.6 mph - N/A   Clear
12:36 PM 71.6 °F 48.2 °F 43% 30.13 in 10.0 mi SW 3.5 mph - N/A   Clear
12:56 PM 73.4 °F 48.2 °F 41% 30.12 in 10.0 mi SSW 5.8 mph - N/A   Clear
1:16 PM 73.4 °F 48.2 °F 41% 30.12 in 10.0 mi South 4.6 mph - N/A   Clear
1:36 PM 75.2 °F 48.2 °F 38% 30.11 in 10.0 mi West 3.5 mph - N/A   Clear
1:56 PM 80.6 °F 44.6 °F 28% 30.11 in 10.0 mi NNW 11.5 mph - N/A   Clear
2:16 PM 80.6 °F 44.6 °F 28% 30.10 in 10.0 mi NW 12.7 mph - N/A   Clear
2:36 PM 80.6 °F 44.6 °F 28% 30.10 in 10.0 mi NW 10.4 mph 17.3 mph N/A   Clear
2:56 PM 80.6 °F 44.6 °F 28% 30.09 in 10.0 mi NW 10.4 mph 16.1 mph N/A   Clear
3:16 PM 80.6 °F 42.8 °F 26% 30.09 in 10.0 mi NW 11.5 mph 17.3 mph N/A   Clear
3:36 PM 80.6 °F 44.6 °F 28% 30.09 in 10.0 mi NW 11.5 mph - N/A   Clear